Location: Newark
(44.3681°N, 100.3364°W)
Time: 06:17:16
(UTC+00:00)

Explorer 7 - Pass Details

Date: 27 February 2020
Orbit: 485 x 679 km, 50.3° (Epoch: 07 April)

Event Time Altitude Azimuth Distance (km) Brightness Sun altitude
Rises 23:19:05 0° 292° (WNW) 2,808 11.2 10.6°
Reaches altitude 10° 23:21:44 10° 279° (W) 1,865 10.7 10.2°
Maximum altitude 23:25:09 24° 224° (SW) 1,149 9.8 9.6°
Drops below altitude 10° 23:28:25 10° 170° (S) 1,762 9.6 9.1°
Sets 23:30:51 0° 156° (SSE) 2,615 10.2 8.7°
